星链-1707 (STARLINK-1707 )

导读

STARLINK-1707是美国太空探索技术公司(SpaceX)星链卫星互联网项目的一员,于2020年9月3日发射入轨,属于星链星座的早期组网卫星。星链计划旨在通过近地轨道卫星群,为全球提供高速互联网接入服务,该卫星承担着为星座组网提供服务支撑、推进全球覆盖的任务,是星链低轨星座建设中的组成部分。

基本信息
目录编号:
46359
目录名称:
STARLINK-1707
国际标识:
2020-062AL
轨道中心:
EARTH
卫星名称:
星链-1707
卫星全名:
星链-1707 (STARLINK-1707 )
卫星状态:
在轨 (已飞行2114 天)
发射日期:
2020-09-03 UTC
国别 :
美国 (US)
星等 :
--
轨道信息
数据来源 国际轨道数据
星历时间: 2026-06-19T00:00:04+0800
4小时前
查看轨道信息
半长轴: 6672.463km
偏心率: 0.0005131
轨道倾角: 53.014°
近地点辐角 62.895°
升交点赤经 130.300°
平近点角 22.920°
近地点: 290.902km
远地点: 297.75km
周期: 90.404分钟
每日圈数: 15.92845
详细信息
固有亮度:
5
最大亮度:
2.5
卫星平台:
Starlink V1.0
覆盖范围:
全球
运营商:
太空探索技术公司
运营商所在国:
美国
制造商(研发单位):
太空探索技术公司
制造商所在国:
美国
使用方式:
暂无
卫星简介
星链(Starlink)计划是由太空探索技术公司(SpaceX)提出的一个巨型低轨卫星互联网星座项目,计划在2019年至2024年间在太空搭建由约1.2万颗卫星组成的“星链”网络,其中1584颗将部署在地球上空550千米处的近地轨道,并从2020年开始工作。该卫星仍在工作。
2D轨道图
3D轨道图
轨道高度分析图
轨道倾角分析图
轨道综合分析图
查看轨道综合分析图